Wind_Speed
9 10 10 10 9 9 9 9 9 10 10 10 9 9 9 10 9 9 10 10 10 10 11 11 11 10 11 12 12 12 12 12 12 12 12 12 13 13 13 13 14 15 15
10 10 10 9 9 9 9 9 10 9 9 9 8 8 9 9 9 10 10 10 10 10 10 10 10 10 10 10 10 11 11 11 11 11 11 12 13 13 12 12 13 14 14
9 9 9 9 9 9 9 9 9 9 8 8 8 8 8 9 9 9 9 9 9 9 9 9 9 9 9 9 9 9 10 10 10 10 10 11 11 12 12 12 12 12 13
9 9 9 9 9 9 8 9 9 9 9 9 8 8 8 9 8 8 8 8 8 8 8 8 8 8 8 8 8 9 9 9 9 10 10 10 10 10 10 11 10 11 11
9 9 9 9 8 9 8 8 8 9 9 9 9 9 8 9 9 8 8 8 8 8 8 7 7 7 8 8 8 8 8 8 8 9 8 8 9 9 9 9 9 10 10
8 8 8 8 8 8 8 8 8 8 8 9 9 8 8 8 8 8 7 8 8 8 8 7 7 7 7 8 7 7 7 7 7 7 7 8 8 8 8 9 9 10 10
8 8 8 8 8 8 8 8 8 8 8 8 8 8 8 7 7 7 7 7 7 8 7 7 7 7 7 7 7 6 7 7 7 7 7 7 8 8 9 9 10 10 10
8 8 9 9 9 9 9 8 8 8 8 8 8 8 8 7 7 7 8 8 8 7 7 7 7 7 7 6 6 6 6 7 7 7 7 8 8 9 9 10 10 10 11
8 8 8 9 9 9 8 8 8 7 7 7 8 8 8 8 8 8 8 8 7 7 7 8 7 7 6 7 7 6 6 6 6 7 8 8 9 9 10 10 10 11 11
9 8 8 8 8 8 8 8 7 7 7 7 7 7 8 8 8 7 7 7 6 6 6 7 6 6 6 6 6 6 6 6 6 7 8 8 9 9 10 10 10 10 11
8 8 8 8 8 8 8 8 8 8 7 7 7 7 8 8 8 8 7 6 6 6 6 6 6 6 6 6 6 6 6 6 6 7 8 9 9 9 9 9 10 10 11
8 8 8 9 9 8 8 8 8 7 7 8 8 8 8 8 8 7 7 6 6 6 6 6 6 6 6 5 6 6 6 7 7 7 8 9 9 9 9 9 10 10 11
9 9 9 9 9 9 9 8 8 8 7 7 7 7 7 7 7 7 7 7 7 6 6 6 6 6 6 6 6 7 7 8 8 8 9 10 10 10 9 9 9 10 11
9 9 9 9 9 8 8 9 9 9 8 8 8 7 7 6 6 6 7 7 7 7 7 7 6 6 6 6 6 7 7 8 8 9 9 9 9 9 8 9 9 10 11
10 10 10 9 9 9 9 9 9 9 8 8 8 8 8 7 7 7 8 8 8 7 7 7 7 7 6 6 7 8 8 8 8 8 8 8 9 9 9 9 9 10 10
12 11 11 10 9 9 9 8 9 9 9 9 9 8 8 7 8 8 8 8 8 8 7 7 8 8 7 7 8 8 8 8 8 8 8 9 9 9 9 9 10 10 11
11 10 10 11 11 10 10 10 10 9 9 9 9 9 8 8 8 8 8 8 8 7 7 7 8 8 8 8 9 9 8 8 9 8 9 10 10 10 10 10 11 11 13
11 10 11 11 11 11 10 10 10 10 10 9 9 9 9 9 9 9 9 9 9 8 8 8 8 8 9 9 9 9 9 9 9 9 10 10 10 10 11 11 12 12 13
12 11 12 12 11 11 11 11 11 11 11 11 10 10 10 9 9 9 9 9 9 9 9 9 9 9 9 9 9 10 10 10 10 10 10 11 11 12 12 12 13 13 14
14 13 13 13 13 12 12 11 11 12 11 11 11 11 10 10 9 9 10 10 10 10 10 10 10 10 10 10 10 10 10 11 11 11 11 12 12 13 13 14 14 14 15
15 14 14 14 14 13 13 12 12 12 12 12 12 12 12 11 10 10 10 10 11 11 11 11 11 11 11 11 11 11 11 11 12 12 12 13 13 14 14 15 15 15 15
16 16 15 15 15 14 14 13 13 13 13 13 13 13 12 12 11 11 11 11 11 12 12 12 12 11 11 12 12 13 13 13 13 13 14 14 15 16 16 17 17 17 17
18 18 17 16 16 16 15 14 14 14 14 14 14 14 13 13 13 12 12 12 12 13 13 12 12 12 12 13 13 14 14 15 15 15 15 15 16 17 17 18 18 18 18
19 19 19 18 17 17 16 15 15 15 15 15 14 15 14 14 14 14 14 14 14 14 14 14 14 14 14 14 15 15 15 16 16 16 16 16 17 17 18 18 19 19 19
20 19 20 19 19 18 17 17 16 16 16 16 16 15 15 15 15 15 15 15 15 16 15 15 16 16 16 16 16 16 16 16 17 17 17 18 18 18 19 20 20 21 21
22 21 21 20 20 19 19 18 18 18 17 16 16 16 16 16 16 16 17 16 16 16 16 16 17 17 17 17 17 18 18 18 18 19 19 20 20 20 20 20 21 22 22
Wind_Direction
272 271 275 276 275 274 275 274 273 274 276 278 278 278 276 276 278 282 285 284 285 284 286 286 285 285 287 286 285 284 282 282 281 282 281 281 282 283 284 284 284 285 284
275 272 274 277 278 275 272 275 275 275 275 279 278 278 279 280 279 280 282 283 285 284 284 286 288 288 289 287 287 287 286 285 284 284 283 285 285 283 285 287 287 288 288
277 273 274 276 278 277 273 275 276 274 277 280 279 281 281 283 282 281 281 279 280 282 284 284 287 289 290 291 291 292 293 292 290 288 291 291 290 288 287 286 288 290 291
277 273 273 275 276 278 276 276 279 278 280 280 281 280 281 284 286 289 287 282 280 284 285 284 288 289 288 289 292 291 291 291 292 294 296 296 300 298 292 292 292 296 297
279 275 275 274 273 275 277 276 276 278 279 277 278 280 282 283 284 288 287 290 287 290 285 283 288 290 290 291 292 292 289 292 295 296 299 305 310 311 308 306 305 306 303
279 274 275 274 272 274 276 275 276 276 278 278 274 274 278 279 283 284 286 291 289 289 284 283 287 289 291 292 294 295 290 298 302 309 311 311 313 315 314 316 317 316 310
281 275 273 275 273 275 276 278 275 276 277 277 269 268 271 275 280 284 287 291 292 294 290 289 285 290 291 294 296 293 297 304 307 310 313 314 319 320 318 319 319 318 313
281 276 276 276 275 275 276 276 273 272 275 274 269 268 268 272 277 280 287 288 291 294 297 296 291 289 289 293 293 295 307 310 310 313 313 311 314 318 317 318 320 319 319
285 281 276 276 276 277 277 274 273 273 274 275 269 269 269 270 276 277 280 283 283 284 287 285 285 289 295 291 287 297 307 311 311 312 316 314 313 314 317 320 324 325 324
285 279 277 275 276 278 276 270 270 271 272 277 278 275 273 274 277 280 280 279 275 278 283 285 287 288 291 297 296 303 306 309 312 310 313 314 312 313 320 321 324 325 326
284 279 276 275 277 276 272 271 265 267 268 271 274 277 277 275 273 276 279 276 276 280 285 285 286 288 291 299 304 312 312 312 313 314 317 317 318 316 318 321 323 325 327
286 281 276 277 278 273 270 271 267 269 269 273 275 276 275 275 273 269 273 277 280 281 279 281 282 288 292 299 304 306 304 306 309 315 321 324 323 324 325 326 330 333 335
287 283 278 275 275 272 268 265 265 268 270 274 274 275 275 276 271 264 268 276 278 278 278 278 280 285 292 300 300 304 306 306 308 312 314 318 319 321 320 320 327 338 341
285 284 277 272 270 269 267 264 260 263 268 271 274 277 277 274 273 268 268 276 274 272 275 279 280 281 287 296 302 307 309 309 309 310 314 319 318 320 321 323 327 335 336
282 282 279 273 272 269 267 265 262 264 265 267 271 274 274 269 269 271 272 275 271 268 273 275 279 279 284 292 300 305 310 312 313 316 320 323 322 320 322 323 327 330 333
282 277 271 269 269 267 265 262 261 262 264 263 267 271 270 270 270 273 273 274 268 264 271 273 277 276 281 289 296 301 306 310 313 313 316 320 323 322 320 323 328 332 332
278 274 270 267 265 265 263 262 262 262 262 263 263 267 271 273 272 269 272 273 270 267 272 275 279 278 280 287 293 299 303 306 312 310 312 316 318 319 319 322 326 329 328
275 271 269 266 265 265 263 263 262 262 261 263 263 265 268 270 270 268 269 271 267 267 273 278 278 282 284 286 291 296 298 301 309 310 309 314 316 317 319 320 323 324 325
270 268 267 265 264 264 264 264 261 259 260 262 263 266 272 271 269 267 267 267 266 266 271 278 280 284 289 290 294 295 295 299 303 305 306 308 311 314 315 315 319 321 323
266 265 264 263 261 260 262 264 263 260 263 263 263 265 270 272 265 266 266 265 264 266 271 275 280 286 287 289 296 299 301 301 302 302 303 304 304 308 313 314 317 318 320
263 263 261 261 261 259 259 260 263 262 262 263 262 263 268 267 264 267 267 267 267 267 270 273 278 282 283 288 294 297 299 300 301 304 304 306 306 306 307 310 314 316 316
258 260 260 260 259 258 257 257 260 262 263 264 264 264 263 262 264 267 266 268 269 269 270 272 274 278 282 286 290 294 297 299 298 301 303 304 306 308 308 309 311 313 315
255 255 255 257 256 255 255 255 259 262 266 265 264 263 262 260 261 264 265 267 269 270 271 272 273 276 280 285 289 294 297 299 300 300 300 300 302 304 305 307 309 311 312
254 254 254 255 254 254 256 255 258 261 264 263 262 262 261 260 262 263 264 266 267 268 269 271 271 275 281 285 288 292 294 296 299 300 300 301 302 303 305 305 305 307 307
253 254 254 253 252 252 253 253 255 259 262 262 260 260 260 260 263 264 265 268 269 269 270 270 274 277 282 285 288 291 292 294 296 297 298 300 302 304 304 304 304 303 304
251 252 253 252 252 251 250 251 254 256 259 260 260 260 260 261 265 265 265 268 269 268 269 270 272 276 280 284 287 290 294 295 296 297 297 299 301 302 302 303 303 303 303
Height
5853 5853 5853 5854 5854 5854 5855 5855 5855 5855 5856 5856 5856 5856 5856 5857 5857 5857 5857 5857 5857 5857 5857 5857 5857 5857 5856 5856 5856 5855 5855 5855 5855 5855 5854 5854 5854 5853 5853 5853 5852 5851 5851
5851 5851 5852 5852 5852 5852 5853 5853 5853 5854 5854 5854 5854 5855 5855 5855 5855 5855 5855 5855 5855 5855 5855 5855 5855 5855 5854 5854 5853 5853 5853 5853 5852 5852 5852 5852 5851 5851 5850 5850 5849 5848 5848
5849 5849 5850 5850 5850 5851 5851 5851 5852 5852 5852 5853 5853 5853 5853 5853 5853 5853 5853 5853 5853 5853 5853 5853 5853 5853 5853 5852 5852 5851 5851 5851 5850 5850 5850 5849 5849 5848 5848 5847 5846 5846 5845
5848 5848 5848 5848 5848 5849 5849 5850 5850 5850 5850 5851 5851 5851 5851 5852 5852 5852 5851 5851 5852 5852 5852 5852 5851 5851 5851 5851 5850 5850 5849 5849 5848 5848 5848 5847 5847 5846 5846 5845 5844 5843 5842
5846 5846 5846 5847 5847 5847 5848 5848 5848 5848 5849 5849 5849 5850 5850 5850 5850 5850 5850 5850 5850 5850 5850 5850 5850 5850 5850 5849 5849 5849 5848 5847 5847 5847 5846 5845 5845 5844 5844 5843 5842 5841 5840
5844 5844 5845 5845 5845 5846 5846 5846 5847 5847 5847 5847 5848 5848 5848 5849 5848 5848 5848 5848 5848 5848 5849 5849 5849 5848 5848 5848 5847 5847 5846 5846 5846 5845 5845 5844 5843 5843 5842 5841 5840 5839 5838
5843 5843 5843 5844 5844 5844 5845 5845 5845 5845 5845 5846 5846 5846 5847 5847 5847 5847 5847 5847 5847 5847 5847 5847 5847 5847 5847 5847 5846 5846 5845 5845 5844 5844 5843 5843 5842 5842 5841 5840 5839 5838 5836
5841 5841 5842 5842 5842 5843 5843 5843 5843 5844 5844 5844 5845 5845 5845 5846 5846 5846 5846 5846 5846 5846 5846 5846 5846 5846 5845 5845 5845 5844 5844 5843 5843 5843 5842 5841 5841 5840 5839 5838 5837 5835 5833
5839 5840 5840 5841 5841 5841 5842 5842 5842 5842 5842 5843 5843 5843 5844 5844 5844 5844 5844 5844 5845 5845 5845 5844 5844 5844 5844 5844 5843 5843 5843 5842 5842 5841 5841 5840 5839 5838 5837 5836 5835 5833 5831
5838 5838 5838 5839 5839 5840 5840 5840 5840 5841 5841 5841 5842 5842 5842 5842 5843 5843 5843 5843 5843 5843 5843 5843 5843 5843 5843 5843 5842 5842 5842 5841 5841 5840 5839 5838 5838 5837 5836 5834 5833 5831 5830
5836 5836 5837 5837 5837 5838 5838 5839 5839 5839 5840 5840 5840 5840 5841 5841 5841 5841 5841 5842 5842 5842 5842 5842 5842 5842 5842 5842 5841 5841 5840 5840 5839 5839 5838 5837 5836 5835 5834 5833 5831 5829 5828
5834 5835 5835 5835 5836 5836 5837 5837 5837 5838 5838 5839 5839 5839 5839 5839 5839 5840 5840 5840 5841 5841 5841 5841 5841 5841 5840 5840 5840 5839 5839 5838 5838 5837 5836 5835 5834 5833 5832 5831 5829 5828 5826
5833 5833 5833 5833 5834 5834 5834 5835 5836 5836 5837 5837 5837 5837 5837 5837 5838 5838 5839 5839 5839 5839 5839 5839 5839 5839 5839 5839 5838 5838 5837 5837 5836 5835 5835 5833 5832 5831 5830 5829 5828 5826 5824
5830 5830 5831 5831 5831 5832 5832 5833 5834 5834 5835 5835 5835 5836 5836 5836 5836 5837 5837 5838 5838 5838 5838 5838 5838 5838 5838 5837 5837 5836 5836 5835 5834 5834 5833 5831 5830 5829 5828 5827 5826 5824 5823
5828 5828 5828 5829 5829 5830 5830 5831 5832 5832 5833 5833 5834 5834 5834 5834 5835 5835 5836 5836 5836 5836 5836 5836 5836 5836 5836 5836 5836 5835 5834 5833 5833 5832 5831 5830 5829 5828 5827 5825 5824 5823 5821
5825 5825 5826 5827 5827 5828 5828 5829 5830 5830 5831 5831 5832 5832 5832 5833 5833 5833 5833 5834 5834 5835 5835 5835 5835 5835 5834 5834 5834 5833 5832 5832 5831 5830 5829 5828 5827 5826 5825 5824 5822 5821 5820
5823 5823 5823 5824 5825 5825 5826 5827 5827 5828 5828 5829 5830 5830 5830 5831 5831 5831 5832 5832 5832 5833 5833 5833 5833 5833 5833 5832 5832 5831 5831 5830 5829 5828 5827 5826 5825 5824 5823 5821 5820 5819 5817
5820 5820 5821 5822 5822 5823 5823 5824 5825 5825 5826 5827 5827 5828 5828 5828 5829 5829 5830 5830 5830 5830 5831 5831 5831 5831 5831 5830 5830 5829 5829 5828 5827 5826 5825 5824 5823 5822 5821 5819 5818 5817 5815
5817 5817 5818 5819 5820 5820 5821 5821 5822 5823 5823 5824 5824 5825 5825 5826 5826 5827 5827 5827 5828 5828 5829 5829 5829 5829 5828 5828 5828 5827 5826 5826 5825 5824 5823 5822 5821 5820 5818 5817 5815 5814 5812
5813 5814 5815 5816 5816 5817 5818 5818 5819 5820 5820 5821 5822 5822 5823 5823 5824 5824 5824 5825 5825 5826 5826 5826 5826 5826 5826 5825 5825 5824 5824 5823 5823 5822 5821 5819 5818 5817 5816 5814 5813 5811 5809
5809 5810 5811 5812 5813 5813 5814 5815 5816 5816 5817 5818 5819 5819 5820 5820 5821 5822 5822 5822 5823 5823 5823 5824 5823 5823 5823 5823 5822 5822 5821 5821 5820 5819 5818 5817 5815 5814 5813 5811 5809 5808 5806
5804 5806 5807 5808 5809 5810 5811 5812 5812 5813 5814 5815 5815 5816 5817 5817 5818 5818 5819 5819 5820 5820 5820 5821 5821 5820 5820 5820 5819 5819 5818 5818 5817 5816 5815 5814 5812 5811 5809 5807 5806 5804 5802
5799 5801 5802 5803 5805 5806 5806 5807 5808 5809 5810 5811 5811 5812 5813 5814 5815 5815 5816 5816 5816 5817 5817 5817 5817 5817 5817 5817 5816 5815 5815 5814 5813 5812 5811 5810 5809 5807 5805 5803 5802 5800 5798
5793 5795 5797 5798 5799 5801 5802 5803 5804 5805 5806 5807 5808 5809 5810 5810 5811 5811 5812 5812 5813 5813 5813 5814 5814 5813 5813 5813 5812 5812 5811 5810 5809 5808 5807 5806 5804 5803 5801 5799 5797 5795 5793
5787 5789 5791 5792 5794 5796 5797 5798 5800 5801 5802 5802 5803 5804 5805 5806 5807 5807 5808 5808 5809 5809 5809 5809 5809 5809 5809 5808 5808 5807 5806 5805 5804 5803 5802 5801 5800 5798 5797 5794 5792 5790 5788
5781 5783 5785 5786 5788 5790 5792 5793 5795 5796 5797 5798 5799 5800 5801 5802 5802 5803 5803 5804 5804 5804 5804 5804 5805 5804 5804 5804 5803 5802 5801 5800 5799 5798 5797 5796 5794 5793 5792 5789 5787 5785 5783